Location: Palomar Observatory
(33.3560°N, 116.8630°W)
Time: 16:38:40
(UTC-07:00)

Iridium 57 - Visible Passes

Search period start: 30 October 2014 00:00
Search period end: 08 November 2014 23:00
Orbit: 776 x 779 km, 86.4° (Epoch: 30 October)

Date Brightness Start Highest point End Pass type
(mag) Time Alt. Az. Time Alt. Az. Time Alt. Az.
30 Oct 8.1 20:38:29 10° SSW 20:38:43 11° SSW 20:38:43 11° SSW visible
31 Oct 6.8 20:04:39 10° S 20:07:07 29° S 20:07:07 29° S visible
01 Nov 8.3 06:40:05 10° NNE 06:43:54 20° E 06:47:41 10° SE visible
01 Nov 5.7 19:31:27 10° SSE 19:36:03 47° E 19:36:03 47° E visible
01 Nov 8.2 21:14:21 10° WSW 21:16:45 15° W 21:16:45 15° W visible
02 Nov 6.5 17:58:57 10° SE 18:03:04 24° E 18:07:13 10° NNE visible
02 Nov 7.3 19:39:05 10° SW 19:43:35 29° W 19:48:06 10° NNW visible
03 Nov 7.1 17:27:47 10° ESE 17:29:51 12° E 17:31:55 10° NE visible
03 Nov 6.0 19:04:51 10° SSW 19:09:57 58° W 19:15:05 10° N visible
04 Nov 7.7 05:39:33 10° NNE 05:44:06 30° E 05:48:37 10° SE visible
04 Nov 5.4 18:31:16 10° S 18:36:26 72° E 18:41:37 10° N visible
05 Nov 8.4 05:07:17 10° NE 05:10:20 16° ENE 05:13:23 10° ESE visible
05 Nov 6.0 17:58:19 10° SSE 18:03:01 36° E 18:07:45 10° NNE visible
05 Nov 7.9 19:40:02 10° SW 19:43:47 20° W 19:47:33 10° NNW visible
06 Nov 6.8 17:26:11 10° SE 17:29:44 19° E 17:33:17 10° NE visible
06 Nov 6.8 19:05:16 10° SSW 19:10:04 38° W 19:14:55 10° NNW visible
07 Nov 6.9 05:39:16 10° NNE 05:44:15 45° E 05:49:12 10° SSE visible
07 Nov 5.6 18:31:18 10° S 18:36:29 76° W 18:41:42 10° N visible
08 Nov 8.1 05:06:28 10° NNE 05:10:34 23° E 05:14:39 10° SE visible
08 Nov 5.6 17:57:57 10° SSE 18:03:00 55° E 18:08:05 10° NNE visible
08 Nov 8.4 19:41:37 10° WSW 19:44:02 13° WNW 19:46:27 10° NW visible
